Terminal Aerodrome Forecast
Issued by NWS

Home | Current Version | Previous Version | Text Only | Print | Product List | Glossary On
Versions: 1 2 3 4 5 6 7 8 9 10 11 12 13 14 15 16 17 18 19 20 21 22 23 24 25 26 27 28 29 30 31 32 33 34 35 36 37 38 39 40 41 42 43 44 45 46 47 48 49 50
000
FTUS44 KHGX 181537 AAE
TAFIAH
TAF AMD
KIAH 181537Z 1816/1918 VRB05KT 3SM TSRA FEW006 BKN020CB BKN250
      TEMPO 1817/1821 VRB09G17KT TSRA BKN025CB
     FM182100 11006KT P6SM VCTS SCT025CB SCT035 BKN060
     FM182300 07006KT P6SM SCT040 BKN100
     FM191000 VRB03KT P6SM VCSH SCT010 BKN250=

USA.gov is the U.S. government's official web portal to all federal, state and local government web resources and services.